Weather History for Honolulu, HI

Change the Weather History Date:

Sunday, April 22, 2012

  Actual Average Record
Temperature  
Mean Temperature 75 °F 76 °F  
Max Temperature 81 °F 83 °F 88 °F (1967)
Min Temperature 68 °F 70 °F 56 °F (1958)
Degree Days  
Heating Degree Days 0 0  
Month to date heating degree days 0 0  
Since 1 July heating degree days 0 0  
Cooling Degree Days 10 11  
Month to date cooling degree days 244 242  
Year to date cooling degree days 1085 1017  
Growing Degree Days 25 (Base 50)    
Moisture  
Dew Point 64 °F    
Average Humidity 71    
Maximum Humidity 90    
Minimum Humidity 51    
Precipitation  
Precipitation 0.01 in 0.01 in 2.29 in (1950)
Month to date precipitation 0.23 0.51  
Year to date precipitation 7.43 6.83  
Snow  
Snow 0.00 in - - ()
Month to date snowfall 0.0  
Since 1 July snowfall 0.0  
Snow Depth 0.00 in    
Sea Level Pressure  
Sea Level Pressure 30.05 in    
Wind  
Wind Speed 11 mph (NE)    
Max Wind Speed 23 mph    
Max Gust Speed 33 mph    
Visibility 10 miles    
Events Rain    
T = Trace of Precipitation, MM = Missing Value Source: NWS Daily Summary

Daily Weather History Graph

Daily Weather History Graph

Search for Another Location

Airport:

Trip Planner

Search our weather history database for the weather conditions in past years. The results will help you decide how hot, cold, wet, or windy it might be!

Date:

Astronomy

Apr. 22, 2012 Rise Set
Actual Time 6:06 AM HST 6:53 PM HST
Civil Twilight 5:43 AM HST 7:16 PM HST
Nautical Twilight 5:16 AM HST 7:43 PM HST
Astronomical Twilight 4:49 AM HST 8:11 PM HST
Moon 6:57 AM HST (4/22) 8:25 PM HST (4/22)
Length of Visible Light 13h 33m
Length of Day
12h 47m
New Moon, 2% of the Moon is Illuminated
Apr 22
New Moon
Apr 28
First Quarter
May 5
Full
May 12
Last Quarter
May 20
New

Hourly Weather History & Observations

Time (HST) Temp. Heat Index Dew Point Humidity Pressure Visibility Wind Dir Wind Speed Gust Speed Precip Events Conditions
12:53 AM 69.1 °F - 64.0 °F 84% 30.05 in 10.0 mi NNE 10.4 mph - 0.00 in Rain Light Rain
1:53 AM 69.1 °F - 66.0 °F 90% 30.03 in 10.0 mi NE 3.5 mph - 0.00 in Rain Light Rain
2:00 AM 69.8 °F - 64.4 °F 83% 30.03 in 10.0 mi Variable 3.5 mph - 0.00 in Rain Light Rain
2:20 AM 69.8 °F - 64.4 °F 83% 30.02 in 10.0 mi North 5.8 mph - 0.00 in Rain Light Rain
2:53 AM 69.1 °F - 66.0 °F 90% 30.01 in 10.0 mi NNW 8.1 mph - 0.00 in   Mostly Cloudy
3:53 AM 70.0 °F - 64.0 °F 81% 30.00 in 10.0 mi Calm Calm - N/A   Overcast
4:42 AM 69.8 °F - 64.4 °F 83% 30.00 in 6.0 mi NE 13.8 mph 18.4 mph 0.01 in Rain Light Rain
4:53 AM 70.0 °F - 64.0 °F 81% 30.01 in 10.0 mi East 8.1 mph - 0.01 in   Mostly Cloudy
5:05 AM 69.8 °F - 64.4 °F 83% 30.01 in 10.0 mi NE 9.2 mph - N/A   Overcast
5:38 AM 69.8 °F - 64.4 °F 83% 30.02 in 8.0 mi Calm Calm - 0.00 in Rain Light Rain
5:53 AM 70.0 °F - 64.0 °F 81% 30.01 in 10.0 mi Variable 5.8 mph - 0.00 in   Mostly Cloudy
6:53 AM 70.0 °F - 64.9 °F 84% 30.04 in 10.0 mi ENE 4.6 mph - 0.00 in   Mostly Cloudy
7:53 AM 70.0 °F - 63.0 °F 78% 30.07 in 10.0 mi NE 18.4 mph 25.3 mph 0.00 in Rain Light Rain
8:53 AM 71.1 °F - 64.0 °F 78% 30.09 in 10.0 mi ENE 12.7 mph - 0.00 in Rain Light Rain
9:53 AM 73.0 °F - 63.0 °F 71% 30.09 in 10.0 mi ENE 19.6 mph 27.6 mph 0.00 in   Mostly Cloudy
10:53 AM 78.1 °F - 63.0 °F 60% 30.09 in 10.0 mi ENE 15.0 mph 23.0 mph N/A   Mostly Cloudy
11:53 AM 81.0 °F 81.9 °F 62.1 °F 52% 30.07 in 10.0 mi ENE 16.1 mph 26.5 mph N/A   Mostly Cloudy
12:53 PM 80.1 °F 81.1 °F 61.0 °F 52% 30.06 in 10.0 mi NE 16.1 mph 24.2 mph N/A   Mostly Cloudy
1:53 PM 75.0 °F - 64.0 °F 69% 30.05 in 9.0 mi NE 17.3 mph 29.9 mph 0.00 in Rain Light Rain
2:53 PM 78.1 °F - 61.0 °F 56% 30.03 in 10.0 mi ENE 16.1 mph - 0.00 in   Mostly Cloudy
3:53 PM 75.9 °F - 63.0 °F 64% 30.02 in 10.0 mi NE 18.4 mph 28.8 mph 0.00 in Rain Light Rain
4:53 PM 72.0 °F - 66.0 °F 81% 30.03 in 8.0 mi ENE 10.4 mph 19.6 mph 0.01 in Rain Light Rain
5:53 PM 73.9 °F - 62.1 °F 66% 30.04 in 10.0 mi ENE 15.0 mph 27.6 mph 0.00 in   Scattered Clouds
6:53 PM 72.0 °F - 64.9 °F 78% 30.06 in 10.0 mi NE 15.0 mph - 0.00 in Rain Light Rain
7:53 PM 72.0 °F - 64.0 °F 76% 30.09 in 10.0 mi ENE 11.5 mph - 0.00 in   Mostly Cloudy
8:53 PM 71.1 °F - 64.0 °F 78% 30.11 in 10.0 mi ENE 12.7 mph - 0.00 in   Scattered Clouds
9:53 PM 72.0 °F - 64.9 °F 78% 30.11 in 8.0 mi NE 15.0 mph 27.6 mph 0.00 in Rain Light Rain
10:53 PM 71.1 °F - 64.9 °F 81% 30.12 in 10.0 mi ENE 12.7 mph 21.9 mph 0.00 in Rain Light Rain
11:53 PM 71.1 °F - 64.9 °F 81% 30.10 in 10.0 mi ENE 11.5 mph - 0.00 in Rain Light Rain